Comox, British Columbia

9:21 AM PST on December 15, 2017 (GMT -0800)
Comox

Weather History for CYQQ - September, 2013

Change the Weather History Date:

Sunday, September 1, 2013

  Actual Average Record
Temperature  
Mean Temperature 62 °F -  
Max Temperature 71 °F 65 °F 77 °F (1998)
Min Temperature 53 °F 48 °F 48 °F (1999)
Degree Days  
Heating Degree Days 3    
Growing Degree Days 12 (Base 50)    
Moisture  
Dew Point 56 °F    
Average Humidity 80    
Maximum Humidity 94    
Minimum Humidity 64    
Precipitation  
Precipitation 0.00 in 0.07 in - ()
Sea Level Pressure  
Sea Level Pressure 29.85 in    
Wind  
Wind Speed 2 mph ()    
Max Wind Speed 6 mph    
Max Gust Speed -    
Visibility 19.9 miles    
Events      
Averages and records for this station are not official NWS values.
T = Trace of Precipitation, MM = Missing Value Source: Averaged Metar Reports

Daily Weather History Graph

Daily Weather History Graph

Search for Another Location

Airport or City:

Trip Planner

Search our weather history database for the weather conditions in past years. The results will help you decide how hot, cold, wet, or windy it might be!

Date:

Astronomy

Sep. 01, 2013 Rise Set
Actual Time 6:35 AM PDT 8:02 PM PDT
Civil Twilight 6:02 AM PDT 8:35 PM PDT
Nautical Twilight 5:21 AM PDT 9:16 PM PDT
Astronomical Twilight 4:37 AM PDT 10:00 PM PDT
Moon 2:49 AM PDT (9/1) 5:54 PM PDT (9/1)
Length of Visible Light 14h 33m
Length of Day
13h 26m
Waning Crescent, 13% of the Moon is Illuminated
Sep 1
Waning Crescent
Sep 5
New
Sep 12
First Quarter
Sep 19
Full
Sep 26
Last Quarter

Hourly Weather History & Observations

Time (PDT) Temp. Dew Point Humidity Pressure Visibility Wind Dir Wind Speed Gust Speed Precip Events Conditions
12:00 AM 59.0 °F 53.6 °F 82% 29.86 in 20.0 mi WNW 2.3 mph - N/A   Clear
1:00 AM 59.0 °F 53.6 °F 82% 29.87 in 20.0 mi Calm Calm - N/A   Clear
2:00 AM 57.2 °F 53.6 °F 88% 29.86 in 20.0 mi SW 2.3 mph - N/A   Clear
3:00 AM 55.4 °F 51.8 °F 88% 29.87 in 20.0 mi West 2.3 mph - N/A   Clear
4:00 AM 55.4 °F 51.8 °F 88% 29.86 in 20.0 mi Calm Calm - N/A   Partly Cloudy
5:00 AM 54 °F 51 °F 87% 29.87 in 19 mi Calm Calm - -   Scattered Clouds
5:00 AM 53.6 °F 51.8 °F 94% 29.87 in 20.0 mi Calm Calm - N/A   Partly Cloudy
6:00 AM 55.4 °F 51.8 °F 88% 29.87 in 20.0 mi Calm Calm - N/A   Mostly Cloudy
7:00 AM 55.4 °F 51.8 °F 88% 29.87 in 20.0 mi Calm Calm - N/A   Mostly Cloudy
8:00 AM 57.2 °F 53.6 °F 88% 29.88 in 20.0 mi Calm Calm - N/A   Scattered Clouds
9:00 AM 60.8 °F 55.4 °F 82% 29.88 in 20.0 mi Calm Calm - N/A   Mostly Cloudy
10:00 AM 64.4 °F 57.2 °F 77% 29.88 in 20.0 mi ENE 2.3 mph - N/A   Scattered Clouds
11:00 AM 64 °F 58 °F 76% 29.88 in 19 mi East 5.8 mph - -   Scattered Clouds
11:00 AM 64.4 °F 59.0 °F 83% 29.88 in 20.0 mi East 4.6 mph - N/A   Partly Cloudy
12:00 PM 66.2 °F 59.0 °F 78% 29.87 in 20.0 mi East 3.5 mph - N/A   Scattered Clouds
1:00 PM 68.0 °F 59.0 °F 73% 29.86 in 20.0 mi East 4.6 mph - N/A   Mostly Cloudy
2:00 PM 69.8 °F 60.8 °F 73% 29.84 in 20.0 mi ENE 2.3 mph - N/A   Mostly Cloudy
3:00 PM 69.8 °F 57.2 °F 64% 29.83 in 20.0 mi East 5.8 mph - N/A   Mostly Cloudy
4:00 PM 69.8 °F 57.2 °F 64% 29.81 in 20.0 mi East 5.8 mph - N/A   Mostly Cloudy
5:00 PM 69.8 °F 59.0 °F 68% 29.80 in 20.0 mi SE 5.8 mph - N/A   Mostly Cloudy
6:00 PM 69.8 °F 59.0 °F 68% 29.80 in 20.0 mi South 4.6 mph - N/A   Mostly Cloudy
7:00 PM 68.0 °F 59.0 °F 73% 29.79 in 20.0 mi SSE 3.5 mph - N/A   Mostly Cloudy
8:00 PM 66.2 °F 59.0 °F 78% 29.80 in 20.0 mi SSE 2.3 mph - N/A   Mostly Cloudy
9:00 PM 64.4 °F 60.8 °F 88% 29.81 in 20.0 mi South 3.5 mph - N/A   Mostly Cloudy
10:00 PM 64.4 °F 60.8 °F 88% 29.81 in 20.0 mi Calm Calm - N/A   Mostly Cloudy
11:00 PM 64 °F 59 °F 79% 29.83 in 19 mi Calm Calm - -   Mostly Cloudy
11:00 PM 64.4 °F 59.0 °F 83% 29.83 in 20.0 mi North 2.3 mph - N/A   Mostly Cloudy